Content
SEND FEEDBACK

Daily
Averages
Monthly
Summary
United States of America

DURANGO, COLORADO


Home > North America > United States > Colorado
Elevation: 6685 feet     Latitude: 37 09N     Longitude: 107 45W

WEATHER
 
SELECT A DAY
Number of Records: 185,846;   Date Range: 1/1/95 - 10/30/14
 
SHARE

PRINT THIS DATA

[ ← Previous Day ]
WEATHER ALMANAC - AUGUST 18, 2014
[ Next Day → ]
[ °C ]   °F
Weather ElementAverageHighLow
Temperature72.6 °F88 °F (3:53 pm)52 °F (4:53 am)
Dewpoint39.6 °F46 °F (12:53 am)28.9 °F (6:53 pm)
Humidity36.6 %77 % (4:53 am)14 % (4:53 pm)
Barometer29.91 in30.01 in (11:53 am)29.81 in (4:53 pm)
Wind Speed6.4 mph24.2 mph (5:25 pm)
Wind Gust42.6 mph (8:53 pm)
Weather ElementAverage
Visibility10 mi
Wind DirectionESE (98.2 °)

Weather ElementTotal
Precipitation---
Cooling Degree Days5 (Base 65)
Growing Degree Days20 (Base 50)
Averaged from 22 records on August 18, 2014
WEATHER CONDITIONS BREAKOUT
WIND DIRECTION BREAKOUT
WEATHER BY HOUR - AUGUST 18, 2014
[ °C ]   °F
Local TimeTemperatureDewpointHumidityBarometerVisibilityWind DirectionWind SpeedGust SpeedPrecipitationEventsConditions
1:53 AM61.0 °F45.0 °F56 %29.96 in10.0 miCalmClear
2:53 AM57.9 °F45.0 °F62 %29.96 in10.0 miCalmClear
3:53 AM55.9 °F45.0 °F67 %29.96 in10.0 miCalmClear
4:53 AM53.1 °F45.0 °F74 %29.97 in10.0 miNNE (30°)4.6 mphClear
5:53 AM52.0 °F45.0 °F77 %29.98 in10.0 miNE (40°)4.6 mphClear
6:53 AM53.1 °F44.1 °F71 %30.00 in10.0 miCalmClear
7:53 AM60.1 °F45.0 °F57 %30.01 in10.0 miCalmClear
8:53 AM68.0 °F46.0 °F45 %29.99 in10.0 miENE (60°)3.5 mphClear
9:53 AM73.9 °F44.1 °F34 %29.97 in10.0 miEast (80°)3.5 mphClear
10:53 AM77.0 °F43.0 °F30 %29.97 in10.0 miEast (90°)8.1 mphClear
11:53 AM80.1 °F43.0 °F27 %29.94 in10.0 miVariable5.8 mphClear
12:53 PM82.9 °F37.0 °F19 %29.91 in10.0 miVariable6.9 mphClear
1:53 PM84.9 °F32.0 °F15 %29.89 in10.0 miVariable3.5 mph17.3 mphPartly Cloudy
2:53 PM86.0 °F34.0 °F16 %29.87 in10.0 miNNE (20°)10.4 mphClear
3:53 PM87.1 °F35.1 °F16 %29.83 in10.0 miWest (260°)5.8 mphScattered Clouds
4:53 PM88.0 °F34.0 °F15 %29.81 in10.0 miNNW (330°)11.5 mphClear
5:53 PM84.9 °F33.1 °F16 %29.82 in10.0 miWest (260°)8.1 mphClear
6:53 PM82.0 °F34.0 °F18 %29.82 in10.0 miWSW (240°)9.2 mphClear
7:53 PM82.0 °F28.9 °F14 %29.81 in10.0 miSSW (200°)16.1 mph21.9 mphClear
8:53 PM78.1 °F34.0 °F20 %29.82 in10.0 miSW (220°)24.2 mph42.6 mph0.00 inMostly Cloudy
10:53 PM75.9 °F37.9 °F25 %29.86 in10.0 miENE (70°)10.4 mph19.6 mphPartly Cloudy
11:53 PM73.0 °F41.0 °F31 %29.86 in10.0 miWest (260°)3.5 mphScattered Clouds
Hourly data recorded from KDRO, located miles away from Durango, Colorado







STORIES FROM OUR PARTNERS